| time (UTC) | temp C | wind direction | speed KPH | gust KPH | rain 1hr cm | rain 24hr cm | rain mn cm | humidity % | barometer mb |
| 20260506134506 | 12 | 302 | 0.0 | 1.6 | 0.00 | 0.00 | 0.00 | 59 | 1013.3 |
| 20260506133001 | 11 | 279 | 0.0 | 0.0 | 0.00 | 0.00 | 0.00 | 60 | 1013.0 |
| 20260506131558 | 10 | 279 | 0.0 | 3.2 | 0.00 | 0.00 | 0.00 | 64 | 1012.9 |
| 20260506130055 | 10 | 279 | 0.0 | 3.2 | 0.00 | 0.00 | 0.00 | 63 | 1012.6 |
| 20260506124551 | 10 | 279 | 0.0 | 1.6 | 0.00 | 0.00 | 0.00 | 63 | 1012.5 |
| 20260506123048 | 11 | 277 | 1.6 | 4.8 | 0.00 | 0.00 | 0.00 | 61 | 1012.2 |
| 20260506121555 | 11 | 301 | 0.0 | 4.8 | 0.00 | 0.00 | 0.00 | 60 | 1012.2 |
| 20260506120107 | 12 | 223 | 3.2 | 12.9 | 0.00 | 0.00 | 0.00 | 58 | 1012.1 |
| 20260506114544 | 12 | 360 | 4.8 | 12.9 | 0.00 | 0.00 | 0.00 | 58 | 1012.0 |
| 20260506113038 | 12 | 360 | 4.8 | 11.3 | 0.00 | 0.00 | 0.00 | 56 | 1011.9 |
| 20260506111539 | 12 | 225 | 4.8 | 12.9 | 0.00 | 0.00 | 0.00 | 55 | 1011.8 |
| 20260506110035 | 12 | 221 | 8.0 | 14.5 | 0.00 | 0.00 | 0.00 | 56 | 1011.7 |
| 20260506104534 | 12 | 190 | 0.0 | 12.9 | 0.00 | 0.00 | 0.00 | 56 | 1011.7 |
| 20260506103035 | 12 | 198 | 1.6 | 8.0 | 0.00 | 0.00 | 0.00 | 56 | 1011.6 |
| 20260506101530 | 12 | 199 | 3.2 | 9.7 | 0.00 | 0.00 | 0.00 | 57 | 1011.4 |
| 20260506100033 | 12 | 234 | 4.8 | 9.7 | 0.00 | 0.00 | 0.00 | 56 | 1011.4 |
| 20260506094533 | 13 | 360 | 4.8 | 9.7 | 0.00 | 0.00 | 0.00 | 55 | 1011.2 |
| 20260506093041 | 13 | 360 | 6.4 | 11.3 | 0.00 | 0.00 | 0.00 | 55 | 1011.2 |
| 20260506091525 | 13 | 217 | 6.4 | 17.7 | 0.00 | 0.00 | 0.00 | 55 | 1011.1 |
| 20260506090023 | 13 | 191 | 6.4 | 16.1 | 0.00 | 0.00 | 0.00 | 55 | 1011.1 |
| 20260506084521 | 13 | 202 | 9.7 | 16.1 | 0.00 | 0.00 | 0.00 | 54 | 1011.1 |
| 20260506083019 | 13 | 232 | 6.4 | 14.5 | 0.00 | 0.00 | 0.00 | 53 | 1011.1 |
| 20260506081516 | 13 | 360 | 4.8 | 14.5 | 0.00 | 0.00 | 0.00 | 52 | 1011.2 |
| 20260506073009 | 15 | 196 | 9.7 | 19.3 | 0.00 | 0.00 | 0.00 | 49 | 1010.9 |
| 20260506071508 | 15 | 360 | 12.9 | 19.3 | 0.00 | 0.00 | 0.00 | 48 | 1010.8 |
| 20260506061603 | 15 | 212 | 11.3 | 19.3 | 0.00 | 0.00 | 0.00 | 48 | 1010.1 |
| 20260506050113 | 15 | 189 | 11.3 | 22.5 | 0.00 | 0.00 | 0.00 | 47 | 1009.3 |
| 20260506044559 | 15 | 190 | 11.3 | 22.5 | 0.00 | 0.00 | 0.00 | 47 | 1009.2 |
| 20260506043051 | 16 | 212 | 11.3 | 19.3 | 0.00 | 0.00 | 0.00 | 46 | 1009.1 |
| 20260506041553 | 16 | 208 | 9.7 | 19.3 | 0.00 | 0.00 | 0.00 | 46 | 1008.8 |
| 20260506040047 | 16 | 189 | 8.0 | 22.5 | 0.00 | 0.00 | 0.00 | 45 | 1008.7 |
| 20260506034545 | 17 | 227 | 9.7 | 25.7 | 0.00 | 0.00 | 0.00 | 43 | 1008.3 |
| 20260506033043 | 17 | 196 | 9.7 | 24.1 | 0.00 | 0.00 | 0.00 | 42 | 1007.9 |
| 20260506031555 | 17 | 205 | 11.3 | 24.1 | 0.00 | 0.00 | 0.00 | 41 | 1007.7 |
| 20260506030057 | 18 | 201 | 11.3 | 27.4 | 0.00 | 0.00 | 0.00 | 39 | 1007.1 |
| 20260506024541 | 19 | 360 | 12.9 | 27.4 | 0.00 | 0.00 | 0.00 | 38 | 1006.8 |
| 20260506023041 | 20 | 360 | 6.4 | 16.1 | 0.00 | 0.00 | 0.00 | 34 | 1006.6 |
| 20260506021540 | 20 | 202 | 9.7 | 24.1 | 0.00 | 0.00 | 0.00 | 33 | 1006.4 |
| 20260506020039 | 21 | 175 | 8.0 | 16.1 | 0.00 | 0.00 | 0.00 | 34 | 1006.3 |
| 20260506014539 | 21 | 192 | 8.0 | 16.1 | 0.00 | 0.00 | 0.00 | 34 | 1006.2 |
| 20260506013044 | 21 | 232 | 11.3 | 19.3 | 0.00 | 0.00 | 0.00 | 32 | 1006.0 |
| 20260506011538 | 22 | 136 | 8.0 | 19.3 | 0.00 | 0.00 | 0.00 | 30 | 1006.0 |
| 20260506010037 | 22 | 269 | 3.2 | 9.7 | 0.00 | 0.00 | 0.00 | 29 | 1006.0 |
| 20260506004604 | 22 | 292 | 4.8 | 11.3 | 0.00 | 0.00 | 0.00 | 28 | 1005.8 |
| 20260506003036 | 23 | 211 | 4.8 | 9.7 | 0.00 | 0.00 | 0.00 | 28 | 1005.7 |
| 20260506001535 | 23 | 133 | 6.4 | 12.9 | 0.00 | 0.00 | 0.00 | 27 | 1005.6 |
| 20260506000034 | 23 | 308 | 1.6 | 11.3 | 0.00 | 0.00 | 0.00 | 27 | 1005.7 |
| 20260505234603 | 23 | 287 | 8.0 | 12.9 | 0.00 | 0.00 | 0.00 | 27 | 1005.7 |
| 20260505233033 | 23 | 327 | 4.8 | 12.9 | 0.00 | 0.00 | 0.00 | 28 | 1005.6 |
| 20260505231535 | 23 | 348 | 6.4 | 20.9 | 0.00 | 0.00 | 0.00 | 28 | 1005.6 |
| 20260505230030 | 23 | 272 | 3.2 | 6.4 | 0.00 | 0.00 | 0.00 | 26 | 1005.8 |
| 20260505224532 | 23 | 126 | 6.4 | 12.9 | 0.00 | 0.00 | 0.00 | 26 | 1006.0 |
| 20260505223027 | 21 | 198 | 3.2 | 14.5 | 0.00 | 0.00 | 0.00 | 29 | 1006.2 |
| 20260505221528 | 21 | 90 | 3.2 | 12.9 | 0.00 | 0.00 | 0.00 | 28 | 1006.2 |
| 20260505220025 | 22 | 98 | 4.8 | 11.3 | 0.00 | 0.00 | 0.00 | 27 | 1006.6 |
| 20260505214525 | 22 | 321 | 1.6 | 9.7 | 0.00 | 0.00 | 0.00 | 28 | 1006.7 |
| 20260505213024 | 22 | 257 | 1.6 | 11.3 | 0.00 | 0.00 | 0.00 | 27 | 1006.8 |
| 20260505211522 | 23 | 240 | 6.4 | 12.9 | 0.00 | 0.00 | 0.00 | 26 | 1006.8 |
| 20260505210022 | 23 | 148 | 9.7 | 19.3 | 0.00 | 0.00 | 0.00 | 27 | 1006.9 |
| 20260505204525 | 23 | 121 | 4.8 | 14.5 | 0.00 | 0.00 | 0.00 | 27 | 1007.0 |
| 20260505203018 | 22 | 265 | 6.4 | 16.1 | 0.00 | 0.00 | 0.00 | 29 | 1007.0 |
| 20260505201517 | 22 | 194 | 6.4 | 14.5 | 0.00 | 0.00 | 0.00 | 29 | 1007.1 |
| 20260505200022 | 22 | 154 | 4.8 | 14.5 | 0.00 | 0.00 | 0.00 | 30 | 1007.2 |
| 20260505194512 | 21 | 360 | 1.6 | 14.5 | 0.00 | 0.00 | 0.00 | 31 | 1007.3 |
| 20260505193011 | 21 | 139 | 9.7 | 17.7 | 0.00 | 0.00 | 0.00 | 32 | 1007.5 |
| 20260505191508 | 21 | 138 | 11.3 | 27.4 | 0.00 | 0.00 | 0.00 | 33 | 1007.5 |
| 20260505190009 | 20 | 315 | 4.8 | 27.4 | 0.00 | 0.00 | 0.00 | 33 | 1007.6 |
| 20260505184508 | 20 | 23 | 4.8 | 17.7 | 0.00 | 0.00 | 0.00 | 35 | 1007.7 |
| 20260505183010 | 20 | 92 | 14.5 | 25.7 | 0.00 | 0.00 | 0.00 | 35 | 1007.7 |
| 20260505181600 | 20 | 101 | 8.0 | 22.5 | 0.00 | 0.00 | 0.00 | 34 | 1007.8 |
| 20260505174555 | 20 | 64 | 3.2 | 9.7 | 0.00 | 0.00 | 0.00 | 32 | 1007.8 |
| 20260505173053 | 20 | 155 | 4.8 | 8.0 | 0.00 | 0.00 | 0.00 | 33 | 1007.7 |
| 20260505171548 | 19 | 62 | 1.6 | 11.3 | 0.00 | 0.00 | 0.00 | 35 | 1007.8 |
| 20260505170045 | 18 | 193 | 3.2 | 14.5 | 0.00 | 0.00 | 0.00 | 37 | 1007.8 |
| 20260505164540 | 17 | 360 | 1.6 | 11.3 | 0.00 | 0.00 | 0.00 | 40 | 1007.7 |
| 20260505163035 | 17 | 63 | 6.4 | 16.1 | 0.00 | 0.00 | 0.00 | 41 | 1007.7 |
| 20260505161531 | 17 | 103 | 6.4 | 12.9 | 0.00 | 0.00 | 0.00 | 41 | 1007.6 |
| 20260505153022 | 15 | 360 | 3.2 | 8.0 | 0.00 | 0.00 | 0.00 | 44 | 1007.6 |
| 20260505151519 | 15 | 360 | 3.2 | 6.4 | 0.00 | 0.00 | 0.00 | 45 | 1007.5 |
| 20260505140117 | 11 | 313 | 0.0 | 6.4 | 0.00 | 0.00 | 0.00 | 56 | 1007.2 |